Time,TemperatureF,DewpointF,PressureIn,WindDirection,WindDirectionDegrees,WindSpeedMPH,WindSpeedGustMPH,Humidity,HourlyPrecipIn,Conditions,Clouds,dailyrainin,SoftwareType,DateUTC
2013-03-18 00:17:00,35.8,27.6,29.78,SSE,157,0.0,0.0,72,0.02,,,0.02,open2300-1.11,2013-03-18 05:17:00,
2013-03-18 01:17:00,34.5,27.3,29.74,SSE,157,0.0,0.0,75,0.00,,,0.02,open2300-1.11,2013-03-18 06:17:00,
2013-03-18 02:17:00,33.6,27.7,29.72,South,180,1.3,7.8,79,0.00,,,0.02,open2300-1.11,2013-03-18 07:17:00,
2013-03-18 03:17:00,34.0,28.1,29.78,West,270,3.1,6.5,79,0.00,,,0.02,open2300-1.11,2013-03-18 08:17:00,
2013-03-18 04:17:00,34.3,28.8,29.76,SW,225,1.3,5.8,80,0.00,,,0.02,open2300-1.11,2013-03-18 09:17:00,
2013-03-18 05:17:00,34.9,29.6,29.76,WSW,247,0.0,4.2,81,0.00,,,0.02,open2300-1.11,2013-03-18 10:17:00,
2013-03-18 06:17:00,35.4,27.9,29.78,NW,315,5.1,12.5,74,0.00,,,0.02,open2300-1.11,2013-03-18 11:17:00,
2013-03-18 07:17:00,34.0,21.9,29.81,North,0,5.4,12.1,61,0.00,,,0.02,open2300-1.11,2013-03-18 12:17:00,
2013-03-18 08:17:00,31.8,18.7,29.84,WNW,292,7.4,20.6,58,0.00,,,0.02,open2300-1.11,2013-03-18 13:17:00,
2013-03-18 09:17:00,32.5,18.5,29.86,NW,315,6.3,12.3,56,0.00,,,0.02,open2300-1.11,2013-03-18 14:17:00,
2013-03-18 10:17:00,34.9,20.3,29.87,NNW,337,5.6,11.6,55,0.00,,,0.02,open2300-1.11,2013-03-18 15:17:00,
2013-03-18 11:17:00,36.7,20.7,29.89,NW,315,14.1,14.1,52,0.00,,,0.02,open2300-1.11,2013-03-18 16:17:00,
2013-03-18 12:17:00,38.5,21.9,29.90,West,270,9.4,20.1,51,0.00,,,0.02,open2300-1.11,2013-03-18 17:17:00,
2013-03-18 13:17:00,40.6,21.8,29.91,WSW,247,12.8,18.1,47,0.00,,,0.02,open2300-1.11,2013-03-18 18:17:00,
2013-03-18 14:17:00,42.1,21.6,29.90,NW,315,6.3,17.7,44,0.00,,,0.02,open2300-1.11,2013-03-18 19:17:00,
2013-03-18 15:17:00,42.4,17.1,29.91,WSW,247,14.3,20.8,36,0.00,,,0.02,open2300-1.11,2013-03-18 20:17:00,
2013-03-18 16:17:00,42.6,17.3,29.92,WSW,247,5.8,18.8,36,0.00,,,0.02,open2300-1.11,2013-03-18 21:17:00,
2013-03-18 17:17:00,41.9,15.4,29.94,NW,315,12.1,21.0,34,0.00,,,0.02,open2300-1.11,2013-03-18 22:17:00,
2013-03-18 18:17:00,41.2,14.8,29.96,West,270,9.6,16.5,34,0.00,,,0.02,open2300-1.11,2013-03-18 23:17:00,
2013-03-18 19:17:00,41.2,15.4,29.97,WNW,292,5.6,18.8,35,0.00,,,0.02,open2300-1.11,2013-03-19 00:17:00,
2013-03-18 20:17:00,36.3,13.6,29.99,WNW,292,4.5,9.2,39,0.00,,,0.02,open2300-1.11,2013-03-19 01:17:00,
2013-03-18 21:17:00,34.3,13.5,30.00,North,0,0.0,5.8,42,0.00,,,0.02,open2300-1.11,2013-03-19 02:17:00,
2013-03-18 22:17:00,31.8,11.8,30.03,NNW,337,0.0,1.3,43,0.00,,,0.02,open2300-1.11,2013-03-19 03:17:00,
2013-03-18 23:17:00,31.3,11.8,30.03,NNW,337,0.9,2.5,44,0.00,,,0.00,open2300-1.11,2013-03-19 04:17:00,